Theta_e
339 340 340 337 339 340 341 340 340 341 343 342 341 338 333 331 331 328 328 330 331 335 338 335 347 352 355 359 359 362 359 355 355 352 357 356 360 350 343 344 344 344 344 344 344 344 344 343 344 346 347 347 348 349 349 350 352 353 352 354 354 355 356 356 357 356 356 356 356 358 359 361 362 364
336 334 334 337 338 341 338 336 337 339 340 341 343 342 341 339 333 329 327 329 335 332 338 338 341 353 356 356 360 360 355 350 353 351 352 355 356 345 342 344 344 344 343 343 342 342 342 343 343 342 343 344 346 347 347 347 348 349 350 351 351 352 353 353 354 354 354 354 355 355 356 357 357 357
337 336 334 335 336 337 336 337 337 337 339 339 339 343 343 339 335 330 330 328 332 335 332 337 340 343 352 354 357 357 355 351 352 353 351 353 350 346 349 341 342 342 341 341 340 339 339 340 341 340 340 342 343 345 345 345 345 346 347 347 348 348 349 350 350 351 351 352 352 352 352 353 354 355
337 335 333 334 334 335 336 336 336 337 338 339 337 339 340 339 337 335 331 330 328 334 335 338 341 343 351 356 360 357 356 354 352 355 356 353 349 360 358 345 340 340 340 340 339 337 337 338 339 339 340 340 342 343 343 342 343 343 344 344 345 346 346 346 347 348 349 349 349 349 350 351 352 353
334 333 332 334 334 336 334 334 334 334 336 337 337 337 340 339 336 334 333 330 331 334 339 339 340 342 345 353 357 356 354 352 349 347 353 355 356 357 358 360 345 340 339 338 338 337 337 337 337 337 338 339 341 342 343 342 341 341 340 341 342 342 343 343 343 345 346 346 347 347 348 348 349 351
332 333 332 332 332 333 333 333 332 333 332 335 333 333 334 340 337 338 334 331 333 331 335 337 341 341 342 341 354 351 353 349 349 348 352 352 351 355 363 360 362 341 339 336 335 336 336 336 336 336 337 338 338 339 340 340 338 338 338 338 339 338 337 338 339 341 342 344 345 346 346 346 347 348
332 331 331 331 332 332 331 331 331 332 332 334 334 333 334 333 335 339 338 332 331 333 334 337 338 341 343 342 344 353 353 353 351 349 348 350 351 357 358 358 361 345 339 337 335 335 335 336 336 335 336 336 335 336 336 336 336 336 336 335 336 337 336 336 337 339 340 341 343 345 344 344 345 346
331 330 330 330 330 331 329 329 328 330 331 331 333 333 333 335 333 334 338 338 333 334 332 336 337 340 340 342 344 345 351 350 349 351 351 352 349 352 356 363 360 349 339 338 336 335 335 335 335 334 334 334 333 333 333 333 333 333 332 332 333 333 333 332 333 336 336 337 339 342 343 343 342 340
330 330 329 329 329 329 327 327 327 327 328 328 330 332 336 336 335 334 335 339 336 334 334 335 339 342 343 343 344 346 343 344 346 349 356 351 352 357 356 357 358 350 334 337 335 334 334 334 334 334 333 333 332 331 331 330 331 330 330 330 330 331 331 330 329 331 332 333 334 334 337 340 342 342
330 330 329 328 329 328 327 325 325 325 325 326 326 328 332 336 334 331 335 339 338 336 335 337 336 339 338 339 341 344 344 340 341 346 353 350 353 356 359 356 354 355 359 356 350 337 336 333 333 333 333 332 331 330 329 328 327 326 326 324 324 326 327 328 330 329 329 330 331 333 334 337 338 339
330 329 329 329 329 328 327 325 325 325 325 325 325 325 328 331 333 332 332 335 337 335 333 336 337 336 339 339 337 343 346 346 344 346 346 341 351 353 357 356 356 358 359 354 346 347 345 341 339 332 331 331 331 330 328 326 324 323 322 321 320 321 322 323 326 327 327 327 328 328 328 331 335 337
330 330 329 329 330 330 329 328 326 326 324 325 324 325 327 329 330 330 331 331 334 331 333 333 334 336 336 338 340 341 344 343 342 344 343 342 345 350 353 354 354 355 350 352 359 349 346 343 339 333 330 331 331 330 330 329 328 325 322 321 323 323 321 321 322 324 323 323 322 323 324 325 329 332
330 330 329 329 330 331 323 320 321 321 320 323 322 324 325 325 325 326 330 330 330 332 335 333 333 335 335 335 336 335 337 338 338 345 344 343 346 349 349 352 358 355 350 354 353 355 359 357 359 357 356 353 340 337 334 339 334 328 323 322 325 325 323 321 321 322 322 322 321 320 321 324 326 330
329 330 329 330 329 322 321 321 321 320 319 318 321 323 323 322 322 322 324 328 331 331 331 330 330 330 332 332 335 335 339 342 345 346 348 344 344 344 346 349 356 358 353 351 352 355 359 358 357 361 359 361 355 356 349 350 348 338 328 327 326 326 325 323 321 321 321 321 320 319 318 321 324 326
329 331 330 331 331 328 326 328 322 321 320 319 318 318 318 318 322 322 321 323 329 331 332 331 331 330 332 334 336 335 338 341 344 343 345 340 342 340 340 340 348 355 352 349 349 352 359 359 355 359 359 359 365 361 359 345 340 336 332 330 328 327 327 326 325 323 320 319 318 318 317 318 321 322
330 329 328 330 332 331 329 328 327 325 321 319 319 318 317 318 318 318 323 323 324 329 332 331 331 331 332 334 337 334 336 341 343 345 345 341 340 337 339 340 339 351 355 352 350 347 356 361 357 356 359 360 361 363 350 341 339 336 333 330 329 328 327 327 327 326 324 321 321 321 321 321 322 322
331 329 329 330 330 329 324 328 328 328 328 320 319 318 318 319 319 320 319 318 325 327 329 332 331 332 334 334 336 338 339 343 340 341 340 339 342 341 339 342 342 352 356 354 351 344 348 357 356 351 359 361 363 362 344 338 338 336 332 330 329 328 327 327 326 326 325 323 322 321 321 320 320 320
332 332 332 329 328 329 329 330 329 329 329 324 324 324 324 324 323 319 319 318 316 319 327 330 331 335 337 337 339 342 345 341 339 338 337 341 341 342 340 345 346 352 358 352 348 344 348 354 352 348 354 361 361 361 349 335 334 334 331 329 327 326 326 325 325 325 324 323 321 320 318 317 317 318
333 333 333 333 331 332 332 332 329 328 327 324 323 323 322 322 323 324 325 327 329 330 331 331 334 337 339 340 342 343 345 343 344 343 343 343 344 344 346 345 346 348 355 354 350 339 344 351 348 353 356 358 359 359 345 333 332 330 327 327 326 326 324 325 324 323 322 322 320 318 317 315 314 314
335 336 337 335 334 334 333 325 319 320 323 324 323 322 321 321 322 323 320 320 322 325 327 331 335 337 339 332 342 343 341 344 346 343 342 342 350 345 346 340 342 342 348 353 348 342 342 349 348 352 354 355 358 357 354 333 330 328 327 328 327 325 322 322 322 322 321 321 320 318 314 312 311 310
334 335 336 336 334 332 332 324 317 317 314 321 321 321 320 320 321 322 325 321 318 317 315 315 317 320 325 325 324 324 325 339 341 343 339 339 344 342 340 340 341 341 347 352 351 347 345 348 346 347 351 351 351 348 350 354 331 329 326 326 324 322 320 320 319 320 320 320 319 318 316 312 310 310
335 337 327 333 334 333 332 321 315 315 316 319 319 319 319 319 319 321 324 324 324 319 317 317 317 319 322 325 324 324 323 322 331 344 337 336 340 337 338 335 338 338 341 347 350 346 342 346 345 344 347 348 349 347 347 353 344 325 322 322 322 319 319 318 317 318 319 319 319 317 314 311 310 319
333 334 334 329 329 329 328 315 312 312 313 318 318 318 318 317 318 320 322 321 321 322 323 327 331 327 325 332 337 338 322 324 329 340 340 340 341 338 339 335 334 333 335 346 353 344 344 343 344 343 339 337 348 349 347 350 346 345 345 337 332 317 319 316 314 313 314 316 316 316 311 308 314 336
327 329 330 329 323 318 313 309 308 309 309 313 316 318 319 319 317 321 320 321 321 323 323 325 333 334 335 337 339 341 339 334 338 338 339 340 338 342 337 337 337 333 334 342 348 344 345 346 341 345 340 339 339 347 352 347 349 349 348 344 341 319 319 315 312 310 310 312 312 312 310 308 316 347
323 324 326 328 321 313 309 307 305 305 307 308 316 320 320 318 316 314 319 323 322 329 326 326 333 337 337 338 338 337 337 337 338 338 338 338 338 337 335 334 334 334 337 343 341 348 342 344 342 346 346 341 341 345 349 350 351 349 350 348 344 335 334 336 332 328 309 307 307 307 307 310 312 324
324 326 328 331 323 309 307 305 303 303 306 309 319 321 309 309 312 319 323 324 326 331 328 330 334 336 335 335 335 334 334 336 337 337 338 338 338 338 338 337 335 333 337 353 333 351 347 343 343 344 350 347 341 338 347 349 349 349 350 349 347 342 342 342 342 340 336 330 324 316 318 310 313 314
327 328 329 332 320 308 302 301 302 304 306 310 319 308 308 311 313 319 324 323 323 325 326 330 335 338 336 334 333 333 334 335 337 337 338 339 339 340 339 341 341 340 344 353 353 354 353 349 348 343 344 343 339 343 341 340 341 348 346 346 347 345 346 345 343 341 340 340 340 312 311 309 310 313
327 328 330 328 309 303 300 301 304 306 308 318 308 308 311 312 317 325 323 321 321 321 321 322 323 328 334 336 335 335 336 335 338 338 339 341 340 341 341 342 342 343 343 351 351 356 355 350 348 347 348 345 340 337 339 344 344 342 341 344 346 346 346 346 344 340 340 341 336 335 338 336 330 327
328 321 308 305 305 306 304 305 309 315 315 312 311 311 313 317 325 323 322 321 321 319 320 320 321 323 324 329 335 341 342 341 341 341 338 340 341 342 344 345 346 346 348 350 353 354 354 351 348 350 349 344 342 341 342 343 341 341 340 340 340 343 344 345 344 341 339 340 337 337 338 339 337 335
314 311 309 308 308 311 317 330 329 328 326 315 316 317 319 325 324 323 322 320 319 319 319 320 321 322 325 328 333 339 343 340 340 341 340 337 337 339 341 341 341 345 347 348 349 353 351 349 347 346 344 342 341 343 343 342 339 342 340 340 341 343 344 343 343 342 339 338 337 338 339 340 339 337
325 324 323 324 318 316 316 317 318 321 322 323 323 324 323 322 321 320 320 320 319 320 320 320 321 322 324 326 326 327 335 338 341 341 340 339 340 341 342 341 340 337 342 346 346 349 350 348 347 345 341 342 344 343 348 347 343 341 340 341 340 336 340 342 342 340 340 339 340 339 340 340 339 338
324 326 320 323 332 333 329 327 326 325 324 322 320 320 319 318 317 318 318 318 322 322 322 322 322 322 322 322 323 324 324 325 327 335 339 339 339 338 338 339 337 340 343 345 344 348 350 349 345 345 345 342 339 345 347 345 346 341 342 342 342 342 341 339 340 341 341 341 338 338 339 338 337 337
323 327 327 323 320 320 318 318 317 318 320 320 319 316 316 315 314 314 315 314 317 319 321 321 321 320 320 320 322 322 321 322 324 328 328 333 337 341 343 338 334 335 337 339 339 343 346 347 345 346 342 342 342 344 346 344 347 346 341 340 341 343 344 341 340 340 342 340 337 337 337 338 339 339
321 325 320 318 316 316 315 314 314 314 315 317 316 316 313 314 313 312 313 313 315 316 318 321 321 320 319 319 320 321 320 321 322 322 321 322 325 326 329 330 329 330 334 333 338 339 338 338 341 341 341 339 337 334 337 343 342 343 346 343 341 340 345 341 341 342 341 339 338 336 336 337 339 341
319 317 317 314 313 313 312 311 311 312 312 313 313 314 314 314 313 312 312 312 313 314 315 317 319 320 320 319 319 319 320 321 322 323 322 322 321 321 321 321 320 321 323 325 325 330 336 335 336 334 335 335 333 332 328 331 342 340 343 343 341 343 343 342 339 340 341 342 339 337 336 337 337 340
315 314 312 311 310 310 310 310 310 310 310 311 311 311 311 311 312 312 311 312 314 314 314 315 315 316 318 319 319 320 319 320 322 322 321 320 319 319 318 318 318 319 320 321 323 326 329 333 334 331 329 329 328 328 330 324 324 334 340 336 339 341 341 340 340 339 340 339 341 339 334 334 337 339
313 313 311 311 309 309 308 308 308 309 309 309 310 310 310 309 310 311 311 313 315 315 314 316 315 316 316 317 319 319 320 319 319 319 320 321 320 319 318 318 319 318 317 319 321 322 324 324 327 331 329 327 326 322 321 329 321 316 322 335 338 340 338 338 337 338 341 341 340 337 336 337 336 339
311 310 309 309 307 307 308 307 308 308 308 308 308 309 309 310 310 311 311 312 313 315 316 315 316 317 317 316 317 319 321 321 320 319 319 321 320 319 319 319 319 319 319 320 320 320 321 321 321 322 325 321 319 320 321 325 327 324 311 326 335 334 336 336 335 335 336 340 339 339 338 336 338 338
308 307 306 305 305 305 305 305 306 306 307 306 306 306 308 309 308 308 308 308 311 314 315 315 316 317 317 318 317 318 319 320 320 320 320 319 320 320 320 321 319 320 320 319 320 319 319 319 319 320 322 320 318 319 323 322 321 327 317 307 327 334 334 334 333 335 335 335 337 338 336 334 330 324
307 305 304 303 302 303 303 303 303 303 303 304 304 306 306 306 305 305 306 306 308 311 312 313 314 313 315 317 317 319 319 320 320 321 321 320 320 320 320 321 321 322 321 319 318 319 318 318 319 320 320 321 323 325 327 327 328 328 327 316 303 316 325 333 333 333 332 336 336 334 333 334 332 335
304 303 302 302 302 302 301 301 301 301 301 302 303 303 304 304 304 303 305 305 307 308 309 309 311 312 313 315 314 315 317 318 320 320 322 322 322 321 320 319 321 322 320 318 318 319 319 322 323 321 327 327 330 332 327 320 318 320 323 325 308 304 306 313 326 332 332 334 333 331 331 330 331 331
303 303 303 303 302 302 302 301 300 300 301 301 301 301 302 304 304 302 303 304 305 307 307 307 308 309 311 313 312 312 313 315 318 316 319 320 321 323 323 323 321 322 321 319 319 320 324 327 328 328 328 327 325 318 315 318 317 319 322 326 326 311 307 307 307 310 321 329 331 330 328 328 332 327
304 304 304 304 304 303 304 303 303 302 301 301 301 301 301 301 302 302 302 302 303 304 304 305 306 308 309 312 312 313 313 312 315 316 318 319 320 319 320 322 323 323 323 323 324 324 325 326 327 327 327 324 323 322 318 319 321 320 320 321 325 328 323 312 309 309 310 310 311 316 323 329 328 319
304 304 303 303 302 302 302 303 304 303 303 302 301 301 300 299 300 300 301 300 301 301 302 304 305 306 307 309 311 312 313 312 314 314 314 316 317 320 321 323 323 323 324 324 325 325 326 326 326 325 324 323 323 323 320 321 320 321 320 321 325 325 323 326 328 318 316 313 309 309 310 310 310 312
304 304 303 302 301 301 301 301 302 302 302 301 301 300 300 299 299 299 299 300 300 300 301 302 304 306 307 308 308 308 310 308 310 313 314 314 314 315 318 320 320 321 321 323 324 324 325 325 325 325 323 324 323 323 323 322 322 321 322 322 322 324 325 326 324 321 322 323 312 307 308 310 312 310
Wind_Speed
11 10 13 10 11 11 10 11 11 11 11 8 8 9 12 13 10 10 9 10 10 10 11 11 9 11 11 9 9 6 5 9 8 9 14 14 11 13 21 21 21 21 22 22 23 23 23 23 23 23 23 22 22 22 21 20 20 19 19 18 18 17 17 16 16 17 17 17 17 17 18 18 18 18
10 12 12 11 12 11 11 12 13 13 12 12 11 10 11 11 11 12 13 13 8 8 8 11 10 7 9 8 8 6 8 10 8 8 15 13 14 16 19 22 21 21 22 22 22 23 23 23 22 22 22 23 23 22 22 21 20 19 20 19 18 18 17 17 17 17 17 17 17 18 18 18 18 18
8 10 13 12 12 12 13 13 14 14 14 13 12 11 9 9 10 15 14 13 13 8 10 10 13 11 10 9 7 6 7 10 11 8 13 16 19 18 14 19 19 19 20 21 22 22 22 21 21 22 22 22 22 22 22 21 20 20 20 19 18 18 17 17 17 17 18 18 18 18 18 18 18 18
10 12 14 13 13 13 14 14 14 14 14 14 14 13 11 10 10 12 15 16 17 10 9 9 10 12 9 9 7 6 5 5 7 7 11 17 21 11 10 14 18 19 21 21 21 21 20 21 21 21 21 21 21 21 21 20 20 19 19 19 19 18 18 17 17 17 18 18 18 18 18 18 18 18
12 12 13 13 14 14 15 14 14 15 16 16 15 15 11 8 11 11 13 15 15 12 8 10 12 12 12 8 8 7 6 4 5 6 8 14 13 13 11 10 16 21 20 20 20 20 21 21 21 21 20 20 20 20 20 19 19 19 19 19 19 18 18 17 17 17 17 17 17 17 18 18 17 17
11 12 13 14 15 14 15 16 17 15 16 15 14 14 15 11 10 11 12 15 12 16 8 10 11 13 14 12 9 9 8 7 7 8 7 9 13 13 8 10 8 19 19 20 19 20 20 20 20 20 19 19 19 19 20 20 20 19 19 19 19 18 17 17 17 17 17 17 17 17 17 17 17 17
11 12 12 14 14 12 15 16 16 17 17 15 14 17 15 15 15 12 14 15 14 13 11 10 11 10 12 14 11 11 10 8 9 10 10 10 11 11 10 10 10 14 19 20 19 20 20 19 19 19 19 20 20 20 21 20 20 19 19 18 18 18 17 17 17 17 17 17 17 17 17 17 17 17
11 11 12 13 14 13 14 14 14 15 15 15 14 14 15 14 16 15 13 12 14 13 12 10 12 11 12 13 14 13 11 11 11 12 12 11 12 14 12 10 9 10 19 20 20 18 17 17 18 19 19 20 20 20 19 19 19 18 18 18 18 18 17 17 17 17 17 17 17 17 17 17 17 16
10 11 11 13 13 15 14 13 13 13 18 17 16 15 12 12 13 14 15 12 13 15 13 11 9 9 10 10 11 12 13 13 13 12 10 10 12 11 10 9 8 6 16 15 16 15 16 17 18 18 19 19 19 19 19 19 18 18 18 18 18 17 17 17 16 16 16 16 16 16 16 16 17 16
10 9 10 11 12 11 12 12 11 13 16 15 16 18 17 13 12 15 15 10 11 14 14 12 10 8 9 9 12 12 12 12 11 10 9 11 10 10 9 8 8 7 5 4 6 10 11 13 16 18 18 19 18 18 18 18 18 18 17 17 17 17 17 16 16 16 16 16 16 16 16 16 16 15
9 9 9 9 9 10 11 12 11 12 14 12 14 15 16 16 13 13 14 13 11 11 13 11 9 9 11 11 13 12 12 11 10 10 7 12 12 10 8 7 5 3 2 6 10 10 11 14 13 15 18 18 18 17 17 16 17 16 17 16 17 16 16 16 16 16 16 16 16 16 16 15 15 15
8 8 8 8 9 9 10 10 9 12 13 11 13 14 13 12 12 13 12 14 10 11 12 11 10 10 10 11 12 12 10 11 11 11 10 11 10 8 8 10 8 5 3 7 7 8 10 11 15 17 17 18 17 17 15 16 16 16 16 16 16 16 16 16 16 16 16 16 15 15 15 14 14 14
7 7 7 8 9 11 12 14 13 11 12 10 11 13 14 13 12 11 9 11 12 11 10 11 12 11 11 10 13 14 12 13 13 10 11 10 8 8 10 10 9 7 10 9 9 10 10 10 9 9 8 9 13 12 15 12 16 16 15 16 16 16 16 16 17 16 16 16 15 15 15 14 14 14
8 7 7 8 11 13 14 14 13 14 14 11 10 11 11 13 13 11 11 11 12 12 11 11 13 16 13 13 14 15 13 11 10 9 8 10 10 10 10 9 8 8 9 8 10 9 9 10 11 9 9 9 11 9 9 10 12 14 18 18 18 17 17 18 17 17 17 16 16 15 15 14 14 14
8 7 8 8 10 11 11 11 12 14 15 15 16 17 17 12 10 12 14 12 12 12 12 13 14 16 14 13 15 17 14 13 11 10 6 6 7 10 9 10 7 6 8 8 9 10 9 10 11 11 11 11 9 10 10 15 17 17 18 20 19 19 19 18 17 17 17 16 15 14 14 14 14 14
8 8 8 8 7 8 10 12 13 14 15 16 18 20 19 18 17 13 12 13 13 13 13 14 15 15 14 14 14 15 14 12 11 9 7 8 10 13 14 10 10 8 11 10 11 10 9 9 7 10 11 11 10 11 12 17 19 21 18 18 19 19 18 17 17 16 16 16 15 15 14 14 14 14
8 7 8 7 7 8 12 11 13 14 14 17 18 19 20 19 16 16 16 16 15 13 13 15 17 16 13 16 16 14 12 11 12 10 10 11 12 12 13 10 9 8 12 10 7 9 8 6 10 13 10 10 8 8 11 13 18 21 19 17 17 17 17 16 16 16 15 15 15 15 15 14 14 13
9 9 8 8 8 9 11 11 11 12 13 16 17 18 18 18 19 18 18 18 18 18 15 16 17 16 16 14 13 13 11 12 13 12 12 12 11 11 13 10 9 7 9 10 6 7 7 9 10 12 11 9 8 7 9 12 16 17 17 15 14 15 15 15 15 15 14 15 15 15 14 13 13 13
11 10 9 8 8 9 10 10 12 12 15 17 17 17 18 19 18 17 17 16 14 12 12 16 18 18 18 17 15 13 12 13 11 11 11 10 10 11 11 10 10 9 10 11 8 10 10 11 12 10 8 7 9 7 8 14 15 15 14 14 13 13 14 13 14 14 14 14 14 14 13 12 12 12
10 10 9 9 9 9 10 12 13 13 13 16 17 17 19 19 18 17 16 18 17 17 17 17 18 18 20 18 14 14 15 11 10 11 11 9 6 8 8 10 10 11 10 13 12 11 11 11 11 9 7 7 6 4 4 10 16 15 15 14 14 14 13 13 13 13 13 13 14 13 13 12 12 12
10 10 9 8 8 9 10 12 13 16 15 12 14 16 19 19 18 18 16 17 17 17 20 24 28 26 22 21 20 17 13 9 9 7 7 9 8 8 8 9 8 8 9 10 12 9 9 9 9 8 7 8 7 5 6 6 12 16 15 15 14 14 13 12 12 12 12 12 12 12 11 11 11 10
9 7 9 13 9 9 10 10 12 14 14 12 12 14 17 20 20 21 19 17 18 22 22 24 26 27 24 22 18 18 16 13 8 9 9 12 8 7 8 10 10 12 12 10 11 9 11 8 8 8 7 7 6 6 5 8 6 8 9 12 13 13 12 11 11 11 12 11 11 11 11 11 9 6
8 10 8 8 10 8 9 10 10 14 13 9 10 12 15 19 23 22 24 23 23 21 17 15 16 16 20 16 11 11 15 16 13 12 12 10 8 9 8 11 11 11 11 11 14 11 10 10 10 8 8 11 8 9 11 11 8 9 8 6 6 9 10 10 10 10 9 10 10 10 12 12 11 6
9 8 9 9 8 9 8 8 10 13 17 10 9 10 12 17 21 20 20 24 22 22 17 15 15 16 17 17 15 13 11 10 14 15 14 12 11 10 9 10 8 12 10 9 15 12 10 11 11 12 12 9 8 8 9 13 11 10 9 8 7 6 8 9 6 7 8 9 10 10 12 13 12 8
11 10 9 9 8 8 8 9 11 13 16 16 10 10 12 15 20 21 17 24 28 13 11 12 12 12 14 15 17 17 17 15 14 14 15 16 15 14 14 14 15 14 11 8 14 11 10 10 12 8 10 10 8 8 11 10 10 10 10 9 8 7 6 6 6 5 5 6 8 9 10 13 14 1
11 10 9 8 4 7 10 10 11 13 14 18 12 14 20 24 25 20 17 18 19 8 6 8 9 12 14 15 15 15 15 17 16 17 15 16 17 16 15 14 13 13 11 8 13 11 8 10 10 8 1 3 9 9 8 8 9 8 8 9 8 9 9 8 7 7 6 5 4 5 8 11 9 3
10 9 9 7 7 12 10 10 11 12 15 12 12 20 22 24 26 21 16 16 14 13 11 9 6 7 8 9 11 11 13 17 17 16 15 16 16 15 15 15 13 12 8 1 4 9 9 7 7 10 7 7 9 5 7 8 8 7 8 8 8 9 9 9 9 8 8 8 6 8 5 5 6 1
9 10 9 8 13 11 10 9 10 12 12 10 16 18 21 22 21 16 17 15 15 14 14 14 12 9 5 8 9 11 13 15 14 15 16 15 17 15 13 13 14 12 10 7 5 2 2 4 7 8 8 9 9 8 9 9 9 11 10 9 9 10 9 9 8 8 7 7 7 6 6 6 4 5
9 9 10 12 11 10 9 10 10 8 9 14 15 17 18 18 12 15 15 16 15 15 13 11 10 9 8 7 7 9 9 10 8 10 13 14 13 13 12 11 10 8 6 6 5 5 6 7 6 4 2 3 7 10 11 7 8 11 10 11 10 10 8 9 9 8 8 8 7 8 8 8 7 6
17 14 12 12 10 9 7 5 5 5 8 13 15 15 16 11 12 12 13 15 16 15 14 12 11 10 10 9 8 8 9 5 8 7 7 10 12 13 11 11 12 9 10 9 8 6 6 7 7 6 6 7 11 11 8 10 10 11 11 11 9 9 8 9 8 8 8 8 7 7 8 8 8 7
7 9 9 7 8 8 11 10 7 5 8 11 11 10 10 11 11 12 12 14 13 14 14 13 12 12 10 10 12 12 1 5 7 10 9 9 10 8 8 10 9 8 11 11 11 8 7 6 5 6 8 8 6 8 6 3 8 9 9 9 9 9 7 8 8 9 8 7 7 6 6 7 6 7
8 9 9 8 4 4 3 4 4 5 6 8 9 9 10 10 11 14 17 16 12 13 12 10 11 11 12 13 11 10 11 10 8 4 8 10 9 10 10 8 8 8 6 3 2 1 2 3 4 6 7 6 8 6 5 5 5 8 8 8 9 8 9 10 10 9 8 7 8 7 6 6 7 7
7 6 7 6 6 6 7 7 7 7 8 7 8 10 11 10 9 10 10 11 12 13 12 12 11 12 11 11 10 10 12 13 11 9 11 7 6 7 5 7 7 6 8 4 5 5 6 4 3 1 2 7 5 3 2 4 4 4 8 8 7 7 7 8 9 10 10 9 8 9 8 6 7 7
4 5 6 7 7 8 7 8 8 8 8 8 8 9 9 10 10 10 11 10 11 12 12 12 12 11 10 11 12 11 11 11 12 12 13 10 10 9 5 4 6 6 3 2 4 5 4 6 6 5 6 7 8 8 6 1 4 3 3 6 8 7 6 6 7 9 9 9 9 9 8 8 7 7
6 7 6 7 7 8 7 8 8 8 8 9 9 9 8 8 10 10 9 10 11 11 11 12 12 11 11 11 11 11 10 10 10 10 11 11 12 12 10 9 9 8 7 7 7 4 3 5 6 6 4 6 5 5 10 7 1 5 3 4 6 6 6 5 6 7 7 7 8 8 8 8 8 7
7 6 6 6 7 8 7 8 8 9 9 9 9 9 9 9 9 9 10 10 10 10 11 11 11 11 11 10 10 10 10 10 10 10 11 11 11 10 10 10 9 10 9 9 7 6 4 1 4 6 6 5 4 2 3 12 12 5 2 5 3 6 6 7 7 7 7 6 5 5 6 9 9 9
7 6 6 6 7 7 7 7 7 8 8 9 9 9 10 11 10 9 10 9 7 8 9 10 11 10 11 11 10 10 10 10 9 10 10 9 9 9 9 9 8 9 11 10 8 8 7 7 6 3 6 5 4 4 4 3 8 12 6 5 7 5 6 7 7 6 4 2 2 4 2 3 6 7
6 6 6 7 7 7 7 7 7 7 8 8 8 8 9 9 9 9 9 9 9 7 9 9 10 10 10 10 11 10 9 9 8 9 9 8 8 9 8 8 8 9 9 8 8 9 9 11 11 9 5 7 7 5 3 4 3 9 13 3 5 6 4 6 7 6 4 1 3 4 3 5 5 4
7 7 7 7 7 7 7 7 8 8 8 8 8 9 9 9 9 9 10 10 10 9 8 9 9 9 10 10 10 9 10 9 9 9 8 8 8 8 8 7 8 8 7 9 9 10 11 11 10 8 7 6 7 5 4 5 4 2 8 16 5 3 3 5 5 4 4 4 4 5 5 6 8 10
7 7 7 6 6 7 7 7 7 8 8 8 8 8 8 9 9 9 9 10 10 11 9 9 10 10 10 10 10 9 9 11 11 9 7 6 6 6 6 7 7 7 7 8 9 8 9 9 8 7 6 5 3 2 3 3 2 3 7 14 15 8 4 3 2 6 5 3 4 5 5 5 6 4
6 6 6 6 6 6 6 6 7 7 7 8 8 9 9 8 9 9 9 10 9 9 10 10 10 11 10 10 10 10 10 9 9 10 9 7 6 5 5 5 4 6 7 8 8 7 9 7 5 10 7 5 4 2 4 7 6 6 7 8 12 15 15 13 7 4 3 3 3 4 4 4 6 5
5 5 5 5 5 6 6 6 6 6 7 7 7 8 8 8 7 10 9 10 9 9 9 9 10 10 10 10 10 10 10 10 9 10 9 8 8 7 6 5 5 5 6 7 7 6 5 5 4 4 4 4 4 7 7 5 5 5 4 5 7 10 14 16 20 16 10 6 3 2 3 2 4 5
4 4 4 5 5 5 5 6 5 6 6 6 7 8 8 8 8 9 9 9 9 9 10 9 9 9 10 9 9 7 8 9 9 9 9 8 8 7 7 6 5 4 4 4 4 3 3 3 4 4 4 5 6 5 5 4 3 2 4 5 6 4 5 9 15 18 16 15 12 8 4 1 3 5
5 5 5 6 6 6 7 7 7 6 6 6 7 7 7 8 8 9 8 9 9 9 10 10 9 10 10 10 9 9 8 9 9 9 9 9 9 8 7 5 5 4 3 2 2 2 2 1 2 3 3 4 4 4 3 3 4 4 3 3 3 5 6 4 4 8 12 14 14 11 10 12 8 5
5 5 6 5 5 6 6 6 6 7 7 7 7 7 7 8 8 8 8 8 8 9 10 10 10 10 10 10 10 10 10 8 8 8 8 9 10 9 9 8 7 7 5 4 3 2 1 1 1 1 1 1 1 3 4 3 3 3 3 3 4 3 2 2 4 6 6 5 8 10 7 8 9 10
Wind_Direction
315 312 311 304 292 285 274 275 268 270 272 251 216 236 252 260 257 260 263 256 258 255 246 257 237 226 234 226 218 222 243 262 289 279 247 228 224 194 204 206 209 212 213 216 218 220 220 221 221 221 221 222 223 224 225 226 227 230 232 233 234 235 235 236 236 236 237 237 236 236 237 238 240 239
316 319 316 310 301 293 288 287 287 282 273 267 258 237 238 249 256 258 257 262 240 250 246 250 258 225 227 225 218 190 227 243 253 248 280 270 234 221 200 205 207 210 213 214 217 218 218 220 220 220 219 220 222 223 224 225 227 230 231 233 234 234 235 235 236 237 237 238 238 237 236 237 239 240
313 311 311 310 301 300 295 290 286 283 279 276 271 260 243 244 247 254 256 259 255 238 254 249 254 254 226 224 211 202 207 235 239 235 250 256 250 226 199 202 203 208 211 214 215 216 217 218 219 219 219 220 220 222 223 224 226 227 230 233 234 234 234 234 235 236 237 238 239 238 238 238 239 240
316 316 315 311 308 307 305 299 294 288 280 275 274 265 249 238 224 240 250 248 258 243 251 258 254 254 239 216 193 202 220 204 211 240 246 240 251 228 220 201 207 208 212 212 213 213 214 216 218 219 220 221 222 222 222 223 224 226 228 231 233 233 233 232 233 234 235 237 237 238 239 240 240 241
318 318 316 312 310 311 308 304 302 298 293 285 277 272 258 229 230 233 243 248 252 258 239 255 258 257 256 222 198 203 208 202 235 250 260 267 250 234 227 225 208 214 212 211 211 211 212 214 216 218 219 220 222 223 224 224 224 225 227 229 230 231 232 232 232 233 235 235 236 237 238 238 239 239
322 321 318 317 318 318 314 311 307 303 300 294 285 279 272 252 231 231 236 239 244 256 242 244 243 250 245 246 191 210 202 206 204 229 239 236 248 249 223 225 213 202 207 210 211 211 211 212 214 215 215 217 218 221 223 224 224 224 225 227 228 229 231 231 231 233 234 234 235 237 237 237 237 238
327 324 325 324 325 325 322 318 312 309 305 301 298 294 288 278 262 240 229 237 242 244 244 241 246 239 240 239 228 206 204 194 188 217 236 247 252 252 233 225 224 191 206 207 210 211 210 209 210 210 213 214 216 218 220 221 221 222 223 225 226 227 228 228 230 231 232 232 234 235 236 236 237 238
328 329 328 330 330 328 325 320 315 312 310 309 305 297 294 280 266 251 239 234 244 246 247 235 239 240 241 241 236 236 217 196 196 201 208 213 239 241 224 224 228 201 205 209 210 211 209 208 207 209 210 212 214 216 217 217 218 219 220 221 222 224 225 226 228 229 229 231 232 234 235 236 236 237
326 332 334 332 331 330 325 325 323 324 320 319 309 296 285 278 262 250 246 236 236 245 242 245 245 249 248 245 238 230 232 220 212 209 189 210 224 227 233 229 225 196 190 194 202 202 205 206 206 208 210 211 212 212 214 215 216 217 218 219 221 222 223 224 226 227 228 229 230 231 233 235 236 235
327 336 336 332 333 332 332 327 318 318 318 313 313 319 312 288 265 256 250 226 228 236 240 239 251 255 250 242 242 233 230 226 221 221 197 214 220 228 215 216 219 214 179 186 194 203 206 210 211 208 208 210 210 211 212 214 216 217 218 219 221 222 223 224 224 225 227 227 227 228 229 231 233 235
323 336 332 331 331 331 332 326 314 310 311 311 312 311 312 312 298 275 263 250 229 234 240 238 233 242 248 244 242 230 232 232 225 217 197 223 216 212 208 208 215 243 219 211 182 191 196 200 206 212 210 207 209 210 213 216 218 219 220 221 222 224 224 224 224 225 225 224 225 225 226 229 231 231
323 330 328 326 323 319 317 313 302 306 311 309 307 311 311 311 315 307 281 260 246 238 238 233 230 228 242 254 251 242 228 229 228 221 218 222 212 203 215 215 205 171 160 243 224 197 190 191 199 203 205 209 208 209 213 217 220 220 222 223 224 224 224 223 224 224 223 223 223 224 225 227 231 235
312 314 323 321 315 307 294 288 287 289 294 300 307 311 312 311 313 309 302 283 259 245 233 238 235 229 235 241 246 238 230 224 226 215 219 228 213 207 207 210 201 176 192 207 211 217 201 202 201 201 204 209 210 215 214 218 216 221 222 223 223 223 221 221 221 221 222 222 222 221 223 225 227 231
305 305 307 304 296 286 283 284 286 294 292 274 274 290 301 308 308 305 301 284 265 253 246 236 235 238 225 226 237 238 229 226 222 210 210 230 220 207 216 207 197 186 195 202 215 214 204 205 207 200 207 208 192 209 197 216 215 210 217 220 221 220 221 220 220 219 219 220 220 219 220 223 226 229
301 297 297 295 291 285 285 291 298 295 294 304 306 302 298 289 281 298 295 282 283 270 256 247 240 237 235 230 235 234 230 225 220 216 186 214 242 229 210 213 200 193 180 199 214 219 213 211 211 204 208 209 197 202 207 201 212 214 208 215 217 219 220 220 219 217 218 218 218 217 219 220 223 226
294 300 299 298 296 291 296 304 307 308 308 307 309 311 311 309 299 263 250 276 281 272 264 253 249 245 236 232 233 234 227 223 218 209 190 189 230 232 222 216 210 194 190 198 212 215 208 213 214 219 210 208 210 204 209 192 202 210 209 207 211 214 217 217 217 216 215 214 214 216 217 218 221 223
284 296 296 299 296 295 296 296 307 308 308 314 313 312 314 312 304 302 281 239 237 261 266 265 255 243 239 241 235 230 230 221 225 208 203 201 217 231 231 216 220 180 182 192 198 215 208 205 220 225 214 212 209 207 215 222 202 204 202 202 205 208 213 214 214 213 212 211 212 213 214 214 217 219
279 286 297 298 295 296 298 299 300 306 310 322 322 322 322 321 317 309 296 283 244 232 249 256 251 248 241 238 240 233 224 227 225 220 222 212 210 221 230 219 220 173 179 194 178 219 206 200 218 223 219 203 207 214 213 205 203 196 194 195 197 202 207 210 211 211 210 210 210 210 210 211 213 216
286 284 287 290 284 287 298 303 309 314 322 324 320 317 319 322 319 309 305 300 302 287 254 243 245 245 243 244 241 239 232 228 230 224 227 225 229 226 221 233 227 204 174 199 187 213 216 199 208 210 204 201 210 205 208 192 189 184 182 186 191 197 202 204 207 207 209 208 207 206 207 207 210 213
267 273 279 284 287 292 300 303 317 322 328 323 321 318 320 321 315 309 295 287 280 271 273 271 257 241 233 237 238 236 233 231 230 231 231 230 188 217 220 223 219 221 197 196 198 218 221 210 208 207 201 204 197 198 228 198 189 180 180 186 192 195 195 199 200 203 204 206 206 205 204 204 207 208
281 275 279 280 287 294 294 299 319 322 328 313 312 315 320 320 314 310 307 294 284 274 263 254 256 262 250 231 229 229 234 232 230 223 230 230 202 203 212 218 218 224 204 197 200 206 218 215 212 205 191 192 190 194 223 210 199 182 184 187 190 189 190 192 195 198 200 201 202 201 200 201 203 199
281 286 293 274 279 282 285 296 317 314 321 314 309 312 315 317 318 318 317 311 302 289 275 264 250 241 245 242 224 212 208 212 217 216 208 221 214 211 211 217 207 216 213 196 195 198 219 211 224 214 198 193 183 196 230 232 176 182 183 189 184 182 181 183 189 192 195 193 193 193 190 189 175 171
303 302 283 278 261 267 278 292 309 314 314 306 304 307 309 314 323 323 317 309 300 295 281 264 237 227 232 234 222 212 203 205 204 220 225 222 215 225 213 226 227 227 221 202 184 201 207 211 212 215 218 210 172 189 204 206 176 178 176 177 181 177 167 169 170 178 177 182 184 182 178 172 171 186
307 303 303 304 287 254 272 311 319 313 310 307 297 302 311 319 320 317 310 304 295 285 264 257 240 220 216 218 218 212 196 205 211 217 222 222 227 214 228 232 233 236 225 204 184 203 211 209 218 206 221 212 197 188 181 184 176 174 175 174 182 155 142 131 125 151 159 170 175 176 175 174 188 191
316 315 319 316 22 352 345 329 322 313 312 311 309 305 316 315 306 309 308 312 304 282 246 237 248 218 207 209 218 219 221 215 210 214 217 224 222 223 224 224 222 231 228 221 174 202 210 207 219 209 222 226 219 198 193 180 170 174 181 182 172 160 162 164 150 144 127 145 163 175 182 185 199 5
314 315 315 313 19 345 336 327 321 313 312 314 316 316 315 315 323 325 325 330 334 326 215 237 239 223 207 209 213 218 216 219 219 217 214 216 224 223 228 233 235 234 221 200 172 190 196 207 213 211 193 223 241 221 185 174 179 169 179 188 171 164 171 170 176 166 165 167 157 184 193 202 198 202
305 308 311 321 349 334 333 324 314 309 311 317 318 316 319 325 327 329 342 342 346 357 2 345 277 199 210 207 213 207 213 219 217 217 216 216 217 224 232 232 235 241 247 239 158 206 199 217 209 213 194 206 231 243 167 194 198 166 188 193 167 163 179 179 175 164 173 178 163 131 148 165 180 230
301 306 315 328 324 321 318 309 306 304 309 319 318 322 322 325 330 336 343 349 351 353 2 11 2 351 297 221 213 219 215 217 208 212 213 214 218 220 226 234 240 241 242 222 201 177 179 224 227 223 218 191 209 229 218 199 174 177 187 194 182 175 184 186 164 151 171 172 149 170 185 183 181 189
295 317 321 309 304 302 296 290 289 299 319 333 329 326 325 329 338 340 346 349 352 356 1 360 350 350 348 318 269 229 212 217 220 205 217 214 214 216 219 228 237 245 227 215 196 183 185 206 231 268 277 164 207 230 227 211 178 170 179 179 191 181 177 184 171 156 169 166 163 180 194 198 191 184
287 287 283 282 277 271 258 269 304 322 338 338 337 335 337 342 340 342 344 349 352 358 353 355 354 348 352 344 336 262 222 214 215 210 212 220 217 214 206 214 226 228 236 226 219 173 189 209 214 219 237 225 222 230 231 209 185 171 172 183 183 158 175 173 170 156 159 170 176 188 198 198 192 179
322 309 300 297 288 280 282 273 261 281 353 354 347 348 345 346 347 342 348 343 348 352 354 354 358 358 354 358 19 10 343 197 228 208 208 218 223 220 208 201 209 211 227 219 215 195 186 200 209 221 231 228 206 216 235 205 159 173 163 186 171 173 165 160 163 163 173 175 176 173 186 179 159 178
314 305 304 282 288 299 325 359 2 13 9 358 351 352 347 352 351 350 351 346 343 350 351 358 354 355 4 14 15 19 31 34 13 332 215 202 202 207 213 200 205 195 196 204 26 22 205 185 226 235 236 221 239 214 166 210 162 164 163 171 176 169 161 175 172 168 165 165 166 175 174 154 166 175
297 325 321 328 357 3 5 8 1 360 5 2 354 355 356 353 358 358 358 351 348 345 346 359 359 360 5 4 9 23 36 36 24 11 18 354 231 200 196 220 213 198 196 190 189 187 204 175 152 57 47 57 12 321 176 139 154 165 175 160 171 162 171 182 167 165 159 162 170 169 161 174 183 177
285 323 344 11 10 356 11 7 3 359 0 2 356 359 354 357 2 359 358 354 348 346 349 355 359 1 0 8 9 21 29 31 33 34 37 17 31 38 32 58 35 23 15 131 157 155 148 146 149 108 102 85 63 45 27 339 161 166 124 152 165 172 169 172 161 158 160 168 170 168 170 175 171 177
12 15 26 12 7 4 9 8 3 358 356 359 1 359 354 0 358 357 351 355 348 352 355 1 356 354 5 9 8 12 18 29 28 33 40 37 34 42 42 47 47 41 35 25 19 4 153 140 131 119 114 106 92 67 51 16 209 129 145 134 160 160 154 142 131 146 161 180 179 169 169 171 172 171
32 26 29 19 19 10 7 14 9 2 360 358 0 358 357 359 359 354 353 342 350 344 358 1 360 359 360 2 6 10 13 24 32 36 42 45 42 42 46 48 48 49 44 33 16 350 343 105 148 124 130 122 123 142 28 37 39 356 151 161 155 143 130 137 144 155 173 192 187 174 171 171 171 166
37 26 35 27 19 12 8 9 9 2 0 356 359 5 7 1 356 351 344 329 348 357 360 357 1 360 1 1 3 7 13 21 33 34 44 43 49 41 42 43 41 47 50 39 24 15 27 33 13 86 122 125 125 99 54 345 49 42 2 169 146 114 124 130 139 160 163 146 202 132 241 157 152 149
41 25 26 27 17 7 6 5 358 2 360 356 357 353 356 3 2 354 345 342 354 1 5 0 358 0 3 8 5 7 10 14 21 29 30 37 42 45 36 32 32 39 44 41 33 30 32 41 35 19 45 101 108 95 114 38 30 14 358 334 136 119 121 136 151 160 133 135 85 94 117 121 117 104
41 36 30 21 12 8 7 4 359 359 360 359 357 353 348 357 1 353 353 346 342 352 3 3 5 359 2 6 8 4 6 11 18 20 21 23 30 33 31 29 33 29 38 43 39 36 36 37 35 32 25 37 55 56 67 96 64 17 10 30 55 86 129 147 142 126 138 127 98 89 69 60 79 94
42 40 33 25 18 14 16 9 5 2 2 359 354 351 355 359 0 356 358 349 351 354 1 2 359 2 4 3 5 2 8 14 14 13 16 22 28 28 27 26 32 32 34 40 44 42 46 40 22 18 13 19 31 21 70 82 125 98 57 42 45 69 29 323 129 147 135 128 134 129 122 125 118 145
36 32 32 24 20 16 14 11 6 5 4 359 354 358 3 360 4 1 3 358 354 356 1 1 3 4 5 8 8 359 2 4 10 6 2 5 13 23 21 19 31 26 45 42 37 36 41 42 27 355 347 335 355 13 43 41 33 15 37 54 46 48 54 61 36 35 64 104 131 118 139 150 131 148
24 27 23 21 18 12 13 13 10 4 360 353 357 355 350 352 8 358 359 359 354 0 2 3 1 3 4 10 12 3 6 359 3 0 355 1 0 0 9 20 28 23 38 44 37 44 38 24 21 359 349 2 31 56 58 49 29 0 7 44 61 51 49 58 65 53 39 30 31 64 83 61 116 115
16 16 23 19 24 13 3 3 4 6 358 358 1 354 354 359 359 2 6 1 0 359 0 359 358 360 1 4 12 7 4 1 4 358 354 4 4 356 356 3 23 35 43 51 59 46 50 15 9 4 3 25 29 51 63 52 65 20 16 31 40 70 72 66 74 75 61 45 37 42 0 280 98 87
8 11 30 27 19 17 8 0 2 1 0 3 4 1 6 3 3 4 5 3 1 358 356 353 352 359 358 0 4 6 8 5 4 7 4 4 357 357 342 345 356 24 40 40 40 77 86 66 38 13 11 39 12 31 48 39 34 43 46 32 32 45 38 40 47 75 72 59 38 18 28 47 61 90
8 24 24 26 23 19 11 5 1 4 6 0 3 8 7 9 2 0 7 7 3 356 353 353 351 354 357 360 4 5 360 5 9 15 10 10 8 356 354 10 13 10 9 10 356 58 70 86 115 120 59 58 82 35 48 22 48 32 31 62 64 48 45 15 60 56 52 46 38 37 32 56 64 66